Regional Weather Roundup
Issued by NWS

Home | Current Version | Previous Version | Text Only | Print | Product List | Glossary On
Versions: 1 2 3 4 5 6 7 8 9 10 11 12 13 14 15 16 17 18 19 20 21 22 23 24 25 26 27 28 29 30 31 32 33 34 35 36 37 38 39 40 41 42 43 44 45 46 47 48 49 50
000
ASUS45 KABQ 170601
RWRNM
WEATHER ROUNDUP FOR NEW MEXICO
NATIONAL WEATHER SERVICE ALBUQUERQUE NM
1200 AM MDT WED SEP 17 2014

NOTE: "FAIR" MEANS FEW OR NO CLOUDS BELOW 12,000 FEET AGL WITH NO
       SIGNIFICANT WEATHER OR OBSTRUCTIONS TO VISION.

      THIS PRODUCT IS RELEASED AS TWO VERSIONS.  ONE VERSION NEAR
      THE TOP OF THE HOUR CONTAINING PRELIMINARY DATA FROM ALBUQUERQUE
      AND OTHER STATIONS.  A FINAL VERSION WITH ADDITIONAL DATA IS
      ISSUED ABOUT 10 MINUTES AFTER THE HOUR.

NMZ501-503-504-510>518-170700-
NORTHWEST PLATEAU/NORTHCENTRAL MOUNTAINS

CITY           SKY/WX    TMP DP  RH WIND       PRES   REMARKS
FARMINGTON     CLEAR     69  46  43 E6        30.16R
6HR MIN TEMP:  67; 6HR MAX TEMP:  84;

LOS ALAMOS     CLOUDY    56  55  97 S8        30.30S
SANTA FE       CLOUDY    59  52  77 SW6       30.26F
6HR MIN TEMP:  59; 6HR MAX TEMP:  72;

ANGEL FIRE     FAIR      41  38  91 CALM      30.40S

$$
NMZ402-403-502-505>509-170700-
WESTCENTRAL MOUNTAINS/SOUTHWEST MOUNTAINS

CITY           SKY/WX    TMP DP  RH WIND       PRES   REMARKS
GALLUP         CLOUDY    62  52  69 SW5       30.25F
6HR MIN TEMP:  62; 6HR MAX TEMP:  74;

GRANTS         CLOUDY    59  52  77 SE6       30.28F
SILVER CITY    CLOUDY    64  61  88 NE8       30.19F

$$
NMZ407-409-411-412-170700-
SOUTHERN DESERTS

CITY           SKY/WX    TMP DP  RH WIND       PRES   REMARKS
LORDSBURG      RAIN      64  63  94 E8        30.11S
DEMING         LGT RAIN  66  63  90 NE15      30.11F
6HR MIN TEMP:  65; 6HR MAX TEMP:  69; 6HR PCP:  0.55;

LAS CRUCES     CLOUDY    68  64  87 N5        30.13F
HOLLOMAN AFB   CLOUDY    66  66 100 CALM      30.12F
ALAMOGORDO     CLOUDY    64  64 100 CALM      30.14F
T OR C         CLOUDY    64  62  93 N5        30.17F
6HR MIN TEMP:  63; 6HR MAX TEMP:  65; 6HR PCP: TRACE;


$$
NMZ519>523-170700-
CENTRAL VALLEYS/CENTRAL HIGHLANDS

CITY           SKY/WX    TMP DP  RH WIND       PRES   REMARKS
ALBUQUERQUE    CLOUDY    63  54  72 SE5       30.23F
6HR MIN TEMP:  63; 6HR MAX TEMP:  68;

DOUBLE EAGLE   CLOUDY    59  55  87 S6        30.25F
CLINES CORNERS CLOUDY    56  51  84 W8        30.28F
6HR MIN TEMP:  56; 6HR MAX TEMP:  64;

BELEN          DRIZZLE   61  59  94 CALM      30.22S
6HR MIN TEMP:  60; 6HR MAX TEMP:  65; 6HR PCP:  0.08;

SOCORRO        DRIZZLE   64  61  90 CALM      30.19F
6HR MIN TEMP:  63; 6HR MAX TEMP:  67; 6HR PCP:  0.05;


$$
NMZ524>526-539-540-170700-
SOUTHCENTRAL MOUNTAINS

CITY           SKY/WX    TMP DP  RH WIND       PRES   REMARKS
RUIDOSO        NOT AVBL

$$
NMZ527>531-170700-
NORTHEAST HIGHLANDS/NORTHEAST PLAINS

CITY           SKY/WX    TMP DP  RH WIND       PRES   REMARKS
LAS VEGAS      CLOUDY    56  50  80 S12       30.26F
6HR MIN TEMP:  56; 6HR MAX TEMP:  69;

RATON          PTCLDY    56  52  86 N7        30.23F
6HR MIN TEMP:  55; 6HR MAX TEMP:  75;

CLAYTON        PTCLDY    63  57  81 W13       30.14F
6HR MIN TEMP:  63; 6HR MAX TEMP:  73;


$$
NMZ532>537-170700-
EASTCENTRAL PLAINS

CITY           SKY/WX    TMP DP  RH WIND       PRES   REMARKS
TUCUMCARI      CLOUDY    66  60  81 SW8       30.11F
6HR MIN TEMP:  66; 6HR MAX TEMP:  75;

CANNON AFB     NOT AVBL
CLOVIS AIRPORT   N/A     64  61  88 W8        30.17F

$$
NMZ028-029-538-170700-
SOUTHEAST PLAINS

CITY           SKY/WX    TMP DP  RH WIND       PRES   REMARKS
ROSWELL        CLOUDY    67  65  93 CALM      30.13F
6HR MIN TEMP:  67; 6HR MAX TEMP:  70;

CARLSBAD       MOCLDY    70  70 100 NW5       30.11F
6HR MIN TEMP:  70; 6HR MAX TEMP:  77;

HOBBS          CLOUDY    66  66 100 CALM      30.15F


$$


USA.gov is the U.S. government's official web portal to all federal, state and local government web resources and services.